Weather History for KFAT - April, 2013

Change the Weather History Date:

Wednesday, April 3, 2013

  Actual Average Record
Temperature  
Mean Temperature 68 °F 59 °F  
Max Temperature 82 °F 71 °F 91 °F (1961)
Min Temperature 54 °F 47 °F 33 °F (1964)
Degree Days  
Heating Degree Days 0    
Month to date heating degree days 4  
Since 1 July heating degree days 1703  
Cooling Degree Days 3    
Month to date cooling degree days 3  
Year to date cooling degree days 26  
Growing Degree Days 18 (Base 50)    
Moisture  
Dew Point 50 °F    
Average Humidity 57    
Maximum Humidity 86    
Minimum Humidity 28    
Precipitation  
Precipitation 0.00 in 0.05 in 0.79 in (1958)
Month to date precipitation 0.00 0.13  
Year to date precipitation 2.12 6.38  
Since 1 July precipitation 5.51  
Snow  
Snow 0.00 in - - ()
Month to date snowfall 0.0  
Since 1 July snowfall 0.0  
Snow Depth 0.00 in    
Sea Level Pressure  
Sea Level Pressure 30.05 in    
Wind  
Wind Speed 2 mph (North)    
Max Wind Speed 9 mph    
Max Gust Speed 13 mph    
Visibility 10 miles    
Events      
T = Trace of Precipitation, MM = Missing Value Source: NWS Daily Summary

Daily Weather History Graph

Daily Weather History Graph

Search for Another Location

Airport or City:

Trip Planner

Search our weather history database for the weather conditions in past years. The results will help you decide how hot, cold, wet, or windy it might be!

Date:

Astronomy

Apr. 03, 2013 Rise Set
Actual Time 6:41 AM PDT 7:23 PM PDT
Civil Twilight 6:15 AM PDT 7:49 PM PDT
Nautical Twilight 5:44 AM PDT 8:20 PM PDT
Astronomical Twilight 5:12 AM PDT 8:52 PM PDT
Moon 2:16 AM PDT (4/3) 12:50 PM PDT (4/3)
Length of Visible Light 13h 34m
Length of Day
12h 41m
Last Quarter, 43% of the Moon is Illuminated
Apr 3
Last Quarter
Apr 10
New
Apr 18
First Quarter
Apr 25
Full
May 2
Last Quarter

Hourly Weather History & Observations

Time (PDT) Temp. Dew Point Humidity Pressure Visibility Wind Dir Wind Speed Gust Speed Precip Events Conditions
12:53 AM 60.1 °F 52.0 °F 75% 30.11 in 10.0 mi Calm Calm - N/A   Clear
1:53 AM 60.1 °F 52.0 °F 75% 30.10 in 10.0 mi West 3.5 mph - N/A   Clear
2:53 AM 57.0 °F 52.0 °F 83% 30.11 in 10.0 mi WNW 5.8 mph - N/A   Partly Cloudy
3:53 AM 57.0 °F 52.0 °F 83% 30.10 in 10.0 mi North 3.5 mph - N/A   Partly Cloudy
4:53 AM 55.9 °F 51.1 °F 84% 30.09 in 10.0 mi Calm Calm - N/A   Clear
5:53 AM 55.0 °F 48.9 °F 80% 30.09 in 10.0 mi ESE 3.5 mph - N/A   Partly Cloudy
6:53 AM 55.0 °F 48.0 °F 77% 30.10 in 10.0 mi Calm Calm - N/A   Mostly Cloudy
7:53 AM 57.0 °F 48.9 °F 74% 30.11 in 10.0 mi Calm Calm - N/A   Mostly Cloudy
8:53 AM 61.0 °F 48.9 °F 64% 30.12 in 10.0 mi ESE 5.8 mph - N/A   Scattered Clouds
9:53 AM 66.0 °F 48.9 °F 54% 30.12 in 10.0 mi ESE 4.6 mph - N/A   Scattered Clouds
10:53 AM 69.1 °F 48.9 °F 49% 30.12 in 10.0 mi Variable 3.5 mph - N/A   Mostly Cloudy
11:53 AM 72.0 °F 48.0 °F 43% 30.11 in 10.0 mi Calm Calm - N/A   Mostly Cloudy
12:53 PM 73.9 °F 46.9 °F 38% 30.08 in 10.0 mi NW 3.5 mph - N/A   Mostly Cloudy
1:53 PM 78.1 °F 46.9 °F 33% 30.06 in 10.0 mi Variable 3.5 mph - N/A   Mostly Cloudy
2:53 PM 79.0 °F 46.9 °F 32% 30.03 in 10.0 mi Calm Calm - N/A   Mostly Cloudy
3:53 PM 80.1 °F 46.9 °F 31% 30.01 in 10.0 mi Calm Calm - N/A   Mostly Cloudy
4:53 PM 82.0 °F 46.9 °F 29% 29.97 in 10.0 mi NNE 3.5 mph - N/A   Mostly Cloudy
5:53 PM 81.0 °F 46.9 °F 30% 29.96 in 10.0 mi Calm Calm - N/A   Mostly Cloudy
6:53 PM 77.0 °F 48.0 °F 36% 29.97 in 10.0 mi WNW 4.6 mph - N/A   Mostly Cloudy
7:53 PM 75.9 °F 50.0 °F 40% 29.96 in 10.0 mi Calm Calm - N/A   Scattered Clouds
8:53 PM 73.9 °F 51.1 °F 45% 29.98 in 10.0 mi Calm Calm - N/A   Partly Cloudy
9:53 PM 69.1 °F 52.0 °F 54% 30.00 in 10.0 mi West 3.5 mph - N/A   Clear
10:53 PM 68.0 °F 53.1 °F 59% 30.01 in 10.0 mi Calm Calm - N/A   Clear
11:53 PM 64.9 °F 52.0 °F 63% 30.01 in 10.0 mi ENE 5.8 mph - N/A   Clear